Regional Weather Roundup
Issued by NWS

Home | Current Version | Previous Version | Text Only | Print | Product List | Glossary Off
Versions: 1 2 3 4 5 6 7 8 9 10 11 12 13 14 15 16 17 18 19 20 21 22 23 24 25 26 27 28 29 30 31 32 33 34 35 36 37 38 39 40 41 42 43 44 45 46 47 48 49 50

000
ASUS45 KBOU 280707
RWRCO

WEATHER ROUNDUP FOR COLORADO
NATIONAL WEATHER SERVICE DENVER/BOULDER CO
1200 AM MST SAT FEB 28 2015

NOTE: "FAIR" INDICATES FEW OR NO CLOUDS BELOW 12000 FEET WITH NO
SIGNIFICANT WEATHER AND/OR OBSTRUCTIONS TO VISIBILITY.

COZ001>005-013-030-031-280800-
...NORTHWEST COLORADO...

CITY           SKY/WX    TMP DP  RH WIND       PRES   REMARKS
CRAIG          CLEAR     19  10  68 E6        29.78S WCI  11
HAYDEN         CLEAR     16   7  67 E9        29.77S WCI   4
MEEKER         CLEAR     13   7  77 NE6       29.77S WCI   4
MOUNT WERNER   NOT AVBL
STEAMBOAT SPGS CLEAR      8   4  81 N3        29.78S
WALDEN         MOCLDY    -2  -8  78 SE5       29.76R WCI -12
$$

COZ006>008-011-280800-
...WEST CENTRAL VALLEYS...

CITY           SKY/WX    TMP DP  RH WIND       PRES   REMARKS
GRAND JUNCTION CLEAR     26  23  88 E12       29.76F WCI  16
MONTROSE       CLEAR     19  16  88 S5        29.80S WCI  12
EAGLE          CLOUDY    21  19  93 E5        29.82S WCI  15
RIFLE          PTCLDY    24  18  77 S5        29.79S WCI  18
DELTA          CLEAR     28  25  89 CALM      29.80F
NUCLA          CLEAR     27  21  80 SE3       29.81S
$$

COZ017>023-064>068-280800-
...SOUTHWEST COLORADO...

CITY           SKY/WX    TMP DP  RH WIND       PRES   REMARKS
DURANGO        LGT SNOW  25  24  96 NE5       29.78F FOG     WCI  19
CORTEZ         CLEAR     27  26  96 E3        29.77F
PAGOSA SPRINGS LGT SNOW  24  24  99 CALM      29.79F
TELLURIDE      MOCLDY    22  17  83 CALM      29.74S
WOLF CREEK PAS LGT SNOW   9   9 100 SW12G17   29.75S WCI  -6
$$

COZ009-010-012-014-032>034-037-058>063-280800-
...CENTRAL COLORADO...

CITY           SKY/WX    TMP DP  RH WIND       PRES   REMARKS
ASPEN          CLEAR      6   2  83 SW7       29.75F WCI  -6
BUENA VISTA    LGT SNOW  10   6  87 CALM      29.80F
COPPER MTN     CLOUDY    10   3  72 SW8       29.68S WCI  -1
BERTHOUD PASS  MOCLDY     1  -6  71 W6        29.68R WCI -10
COTTONWOOD PAS FLURRIES  18  12  79 CALM      29.73F
GUNNISON       PTCLDY    12   3  67 N8        29.80R WCI   1
KREMMLING      CLOUDY    14   9  79 N3        29.79S
LEADVILLE      CLOUDY     7   4  87 CALM      29.72S
SALIDA         CLOUDY     9   6  89 CALM      29.90S
SUNLIGHT       PTCLDY    12  10  92 CALM        N/A
WILKERSON PASS LGT SNOW   9   5  85 SW8       29.71F WCI  -4
$$

COZ069>075-280800-
...SAN LUIS VALLEY/SANGRE DE CRISTO MOUNTAINS...

CITY           SKY/WX    TMP DP  RH WIND       PRES   REMARKS
ALAMOSA        CLOUDY    16  12  84 SE3       29.79F
LA VETA PASS   LGT SNOW  12  10  92 MISG      29.73F
SAGUACHE       CLOUDY    19  18  93 S6        29.80S WCI  11
$$

COZ035-036-038>040-280800-
...NORTHERN COLORADO FRONT RANGE...

CITY           SKY/WX    TMP DP  RH WIND       PRES   REMARKS
DENVER INTL AP PTCLDY     2  -1  88 S10       29.89F WCI -14
DMNS CITY PARK   N/A      8   6  92 NE2       29.90S
AURORA         PTCLDY     7   2  82 S6        29.88F WCI  -4
FRONT RANGE AP NOT AVBL
ERIE MUNI ARPT PTCLDY     2  -1  88 S3        29.92S
BOULDER MUN AP PTCLDY    10   7  85 SW3       29.90S
CENTENNIAL     PTCLDY     7   3  84 S9        29.86F WCI  -7
BROOMFIELD     PTCLDY    10   5  79 W3        29.88S
FORT COLLINS   MOCLDY     9   5  85 CALM      29.92S
LONGMONT       MOCLDY     2  -2  82 W3        29.94S
$$

COZ041-046-047-076>085-087-088-280800-
...PIKES PEAK/PALMER DIVIDE AND SOUTHERN FOOTHILLS...

CITY           SKY/WX    TMP DP  RH WIND       PRES   REMARKS
COLO. SPRINGS  LGT SNOW   6   3  87 CALM      29.90F FOG
A. F. ACADEMY  FLURRIES   5   1  85 S5        29.85F WCI  -4
ELLICOTT       NOT AVBL
FALCON         LGT SNOW   1  -3  84 W3        29.85F
FORT CARSON    CLOUDY     6   3  87 SE1       29.90F
LIMON          CLOUDY     4   1  88 S14       29.96F WCI -14
MONUMENT HILL  MOCLDY     3   0  85 S10G17    29.79F WCI -12
TRINIDAD       CLOUDY    12   6  77 NW5       29.91F WCI   4
$$

COZ042>045-048>051-090-091-280800-
...NORTHEAST COLORADO...

CITY           SKY/WX    TMP DP  RH WIND       PRES   REMARKS
GREELEY ARPT   PTCLDY     7  -2  66 NE3       29.93S
AKRON          PTCLDY     7   3  84 S14       29.98F WCI -10
BURLINGTON     CLOUDY    10   5  80 S13       30.07F HAZE    WCI  -5
WRAY           CLOUDY    14   9  79 S10G18    30.11F WCI   1
STERLING       PTCLDY     9   5  85 S7        30.03S WCI  -3
HOLYOKE        NOT AVBL
FORT MORGAN    PTCLDY     8   3  78 S13       29.99S WCI  -8
$$

COZ086-089-092>099-280800-
...SOUTHEAST COLORADO...

CITY           SKY/WX    TMP DP  RH WIND       PRES   REMARKS
PUEBLO         LGT SNOW  11   7  84 NE7       29.99F FOG     WCI   0
LA JUNTA       MOCLDY    12   7  80 E8        30.01F WCI   0
LAMAR          MOCLDY    14   9  80 SE14      30.07F WCI  -1
SPRINGFIELD      N/A     12   8  84 S21       30.05S WCI  -7
$$



USA.gov is the U.S. government's official web portal to all federal, state and local government web resources and services.